owner,sensor,date,latitude,longitude,vertical_datum,wind_speed,wind_to_direction,wind_speed_of_gust,qcFlag 
DISL,ioos:station:DISL:MHPA:1,2010-05-01T00:00:00Z,30.6671,-87.9365,8.5,3.77,113.5,-9999.0,'1111122,1111122,1111122' 
DISL,ioos:station:DISL:MHPA:1,2010-05-01T00:30:00Z,30.6671,-87.9365,8.5,4.54,113.6,-9999.0,'1111122,1111122,1111122' 
DISL,ioos:station:DISL:MHPA:1,2010-05-01T01:00:00Z,30.6671,-87.9365,8.5,5.94,124.4,-9999.0,'1111122,1111122,1111122' 
DISL,ioos:station:DISL:MHPA:1,2010-05-01T01:30:00Z,30.6671,-87.9365,8.5,4.92,113.7,-9999.0,'1111122,1111122,1111122' 
DISL,ioos:station:DISL:MHPA:1,2010-05-01T02:00:00Z,30.6671,-87.9365,8.5,4.31,115.5,-9999.0,'1111122,1111122,1111122' 
DISL,ioos:station:DISL:MHPA:1,2010-05-01T02:30:00Z,30.6671,-87.9365,8.5,5.22,109.1,-9999.0,'1111122,1111122,1111122' 
DISL,ioos:station:DISL:MHPA:1,2010-05-01T03:00:00Z,30.6671,-87.9365,8.5,5.36,119.4,-9999.0,'1111122,1111122,1111122' 
DISL,ioos:station:DISL:MHPA:1,2010-05-01T03:30:00Z,30.6671,-87.9365,8.5,4.95,122.5,-9999.0,'1111122,1111122,1111122' 
DISL,ioos:station:DISL:MHPA:1,2010-05-01T04:00:00Z,30.6671,-87.9365,8.5,5.03,119.8,-9999.0,'1111122,1111122,1111122' 
DISL,ioos:station:DISL:MHPA:1,2010-05-01T04:30:00Z,30.6671,-87.9365,8.5,4.8,111.8,-9999.0,'1111122,1111122,1111122' 
DISL,ioos:station:DISL:MHPA:1,2010-05-01T05:00:00Z,30.6671,-87.9365,8.5,4.93,112.9,-9999.0,'1111122,1111122,1111122' 
DISL,ioos:station:DISL:MHPA:1,2010-05-01T05:30:00Z,30.6671,-87.9365,8.5,4.96,114.8,-9999.0,'1111122,1111122,1111122' 
DISL,ioos:station:DISL:MHPA:1,2010-05-01T06:00:00Z,30.6671,-87.9365,8.5,6.13,116.6,-9999.0,'1111122,1111122,1111122' 
DISL,ioos:station:DISL:MHPA:1,2010-05-01T06:30:00Z,30.6671,-87.9365,8.5,6.84,121.0,-9999.0,'1111122,1111122,1111122' 
DISL,ioos:station:DISL:MHPA:1,2010-05-01T07:00:00Z,30.6671,-87.9365,8.5,6.1,117.2,-9999.0,'1111122,1111122,1111122' 
DISL,ioos:station:DISL:MHPA:1,2010-05-01T07:30:00Z,30.6671,-87.9365,8.5,6.1,119.2,-9999.0,'1111122,1111122,1111122' 
DISL,ioos:station:DISL:MHPA:1,2010-05-01T08:00:00Z,30.6671,-87.9365,8.5,5.38,128.7,-9999.0,'1111122,1111122,1111122' 
DISL,ioos:station:DISL:MHPA:1,2010-05-01T08:30:00Z,30.6671,-87.9365,8.5,5.5,127.6,-9999.0,'1111122,1111122,1111122' 
DISL,ioos:station:DISL:MHPA:1,2010-05-01T09:00:00Z,30.6671,-87.9365,8.5,5.86,132.2,-9999.0,'1111122,1111122,1111122' 
DISL,ioos:station:DISL:MHPA:1,2010-05-01T09:30:00Z,30.6671,-87.9365,8.5,6.39,134.4,-9999.0,'1111122,1111122,1111122' 
DISL,ioos:station:DISL:MHPA:1,2010-05-01T10:00:00Z,30.6671,-87.9365,8.5,6.6,138.6,-9999.0,'1111122,1111122,1111122' 
DISL,ioos:station:DISL:MHPA:1,2010-05-01T10:30:00Z,30.6671,-87.9365,8.5,7.04,137.3,-9999.0,'1111122,1111122,1111122' 
DISL,ioos:station:DISL:MHPA:1,2010-05-01T11:00:00Z,30.6671,-87.9365,8.5,7.57,135.1,-9999.0,'1111122,1111122,1111122' 
DISL,ioos:station:DISL:MHPA:1,2010-05-01T11:30:00Z,30.6671,-87.9365,8.5,6.88,138.8,-9999.0,'1111122,1111122,1111122' 
DISL,ioos:station:DISL:MHPA:1,2010-05-01T12:00:00Z,30.6671,-87.9365,8.5,6.99,137.6,-9999.0,'1111122,1111122,1111122' 
DISL,ioos:station:DISL:MHPA:1,2010-05-01T12:30:00Z,30.6671,-87.9365,8.5,7.59,139.9,-9999.0,'1111122,1111122,1111122' 
DISL,ioos:station:DISL:MHPA:1,2010-05-01T13:00:00Z,30.6671,-87.9365,8.5,6.69,143.2,-9999.0,'1111122,1111122,1111122' 
DISL,ioos:station:DISL:MHPA:1,2010-05-01T13:30:00Z,30.6671,-87.9365,8.5,7.32,141.6,-9999.0,'1111122,1111122,1111122' 
DISL,ioos:station:DISL:MHPA:1,2010-05-01T14:00:00Z,30.6671,-87.9365,8.5,7.64,143.2,-9999.0,'1111122,1111122,1111122' 
DISL,ioos:station:DISL:MHPA:1,2010-05-01T14:30:00Z,30.6671,-87.9365,8.5,7.78,147.8,-9999.0,'1111122,1111122,1111122' 
DISL,ioos:station:DISL:MHPA:1,2010-05-01T15:00:00Z,30.6671,-87.9365,8.5,8.41,148.5,-9999.0,'1111122,1111122,1111122' 
DISL,ioos:station:DISL:MHPA:1,2010-05-01T15:30:00Z,30.6671,-87.9365,8.5,9.54,153.2,-9999.0,'1111122,1111122,1111122' 
DISL,ioos:station:DISL:MHPA:1,2010-05-01T16:00:00Z,30.6671,-87.9365,8.5,9.84,159.7,-9999.0,'1111122,1111122,1111122' 
DISL,ioos:station:DISL:MHPA:1,2010-05-01T16:30:00Z,30.6671,-87.9365,8.5,9.57,161.2,-9999.0,'1111122,1111122,1111122' 
DISL,ioos:station:DISL:MHPA:1,2010-05-01T17:00:00Z,30.6671,-87.9365,8.5,10.0,165.7,-9999.0,'1111122,1111122,1111122' 
DISL,ioos:station:DISL:MHPA:1,2010-05-01T17:30:00Z,30.6671,-87.9365,8.5,10.06,162.4,-9999.0,'1111122,1111122,1111122' 
DISL,ioos:station:DISL:MHPA:1,2010-05-01T18:00:00Z,30.6671,-87.9365,8.5,9.29,163.4,-9999.0,'1111122,1111122,1111122' 
DISL,ioos:station:DISL:MHPA:1,2010-05-01T18:30:00Z,30.6671,-87.9365,8.5,9.53,160.3,-9999.0,'1111122,1111122,1111122' 
DISL,ioos:station:DISL:MHPA:1,2010-05-01T19:00:00Z,30.6671,-87.9365,8.5,8.53,150.8,-9999.0,'1111122,1111122,1111122' 
DISL,ioos:station:DISL:MHPA:1,2010-05-01T19:30:00Z,30.6671,-87.9365,8.5,8.54,151.1,-9999.0,'1111122,1111122,1111122' 
DISL,ioos:station:DISL:MHPA:1,2010-05-01T20:00:00Z,30.6671,-87.9365,8.5,8.63,154.1,-9999.0,'1111122,1111122,1111122' 
DISL,ioos:station:DISL:MHPA:1,2010-05-01T20:30:00Z,30.6671,-87.9365,8.5,8.1,149.2,-9999.0,'1111122,1111122,1111122' 
DISL,ioos:station:DISL:MHPA:1,2010-05-01T21:00:00Z,30.6671,-87.9365,8.5,8.17,146.0,-9999.0,'1111122,1111122,1111122' 
DISL,ioos:station:DISL:MHPA:1,2010-05-01T21:30:00Z,30.6671,-87.9365,8.5,8.13,140.4,-9999.0,'1111122,1111122,1111122' 
DISL,ioos:station:DISL:MHPA:1,2010-05-01T22:00:00Z,30.6671,-87.9365,8.5,7.81,142.3,-9999.0,'1111122,1111122,1111122' 
DISL,ioos:station:DISL:MHPA:1,2010-05-01T22:30:00Z,30.6671,-87.9365,8.5,8.22,139.4,-9999.0,'1111122,1111122,1111122' 
DISL,ioos:station:DISL:MHPA:1,2010-05-01T23:00:00Z,30.6671,-87.9365,8.5,8.27,142.8,-9999.0,'1111122,1111122,1111122' 
DISL,ioos:station:DISL:MHPA:1,2010-05-01T23:30:00Z,30.6671,-87.9365,8.5,7.64,137.8,-9999.0,'1111122,1111122,1111122' 
DISL,ioos:station:DISL:MHPA:1,2010-05-02T00:00:00Z,30.6671,-87.9365,8.5,7.08,133.6,-9999.0,'1111122,1111122,1111122' 
DISL,ioos:station:DISL:MHPA:1,2010-05-02T00:30:00Z,30.6671,-87.9365,8.5,6.84,139.0,-9999.0,'1111122,1111122,1111122' 
DISL,ioos:station:DISL:MHPA:1,2010-05-02T01:00:00Z,30.6671,-87.9365,8.5,7.21,138.9,-9999.0,'1111122,1111122,1111122' 
DISL,ioos:station:DISL:MHPA:1,2010-05-02T01:30:00Z,30.6671,-87.9365,8.5,6.91,141.0,-9999.0,'1111122,1111122,1111122' 
DISL,ioos:station:DISL:MHPA:1,2010-05-02T02:00:00Z,30.6671,-87.9365,8.5,7.27,139.3,-9999.0,'1111122,1111122,1111122' 
DISL,ioos:station:DISL:MHPA:1,2010-05-02T02:30:00Z,30.6671,-87.9365,8.5,8.2,143.5,-9999.0,'1111122,1111122,1111122' 
DISL,ioos:station:DISL:MHPA:1,2010-05-02T03:00:00Z,30.6671,-87.9365,8.5,8.07,145.4,-9999.0,'1111122,1111122,1111122' 
DISL,ioos:station:DISL:MHPA:1,2010-05-02T03:30:00Z,30.6671,-87.9365,8.5,7.45,149.3,-9999.0,'1111122,1111122,1111122' 
DISL,ioos:station:DISL:MHPA:1,2010-05-02T04:00:00Z,30.6671,-87.9365,8.5,7.82,144.8,-9999.0,'1111122,1111122,1111122' 
DISL,ioos:station:DISL:MHPA:1,2010-05-02T04:30:00Z,30.6671,-87.9365,8.5,6.9,141.2,-9999.0,'1111122,1111122,1111122' 
DISL,ioos:station:DISL:MHPA:1,2010-05-02T05:00:00Z,30.6671,-87.9365,8.5,7.92,146.5,-9999.0,'1111122,1111122,1111122' 
DISL,ioos:station:DISL:MHPA:1,2010-05-02T05:30:00Z,30.6671,-87.9365,8.5,8.94,152.2,-9999.0,'1111122,1111122,1111122' 
DISL,ioos:station:DISL:MHPA:1,2010-05-02T06:00:00Z,30.6671,-87.9365,8.5,7.64,150.7,-9999.0,'1111122,1111122,1111122' 
DISL,ioos:station:DISL:MHPA:1,2010-05-02T06:30:00Z,30.6671,-87.9365,8.5,7.35,153.4,-9999.0,'1111122,1111122,1111122' 
DISL,ioos:station:DISL:MHPA:1,2010-05-02T07:00:00Z,30.6671,-87.9365,8.5,7.15,155.9,-9999.0,'1111122,1111122,1111122' 
DISL,ioos:station:DISL:MHPA:1,2010-05-02T07:30:00Z,30.6671,-87.9365,8.5,7.76,150.4,-9999.0,'1111122,1111122,1111122' 
DISL,ioos:station:DISL:MHPA:1,2010-05-02T08:00:00Z,30.6671,-87.9365,8.5,8.76,149.1,-9999.0,'1111122,1111122,1111122' 
DISL,ioos:station:DISL:MHPA:1,2010-05-02T08:30:00Z,30.6671,-87.9365,8.5,9.03,155.3,-9999.0,'1111122,1111122,1111122' 
DISL,ioos:station:DISL:MHPA:1,2010-05-02T09:00:00Z,30.6671,-87.9365,8.5,9.72,151.5,-9999.0,'1111122,1111122,1111122' 
DISL,ioos:station:DISL:MHPA:1,2010-05-02T09:30:00Z,30.6671,-87.9365,8.5,8.57,157.3,-9999.0,'1111122,1111122,1111122' 
DISL,ioos:station:DISL:MHPA:1,2010-05-02T10:00:00Z,30.6671,-87.9365,8.5,9.41,156.4,-9999.0,'1111122,1111122,1111122' 
DISL,ioos:station:DISL:MHPA:1,2010-05-02T10:30:00Z,30.6671,-87.9365,8.5,9.89,156.2,-9999.0,'1111122,1111122,1111122' 
DISL,ioos:station:DISL:MHPA:1,2010-05-02T11:00:00Z,30.6671,-87.9365,8.5,10.34,159.2,-9999.0,'1111122,1111122,1111122' 
DISL,ioos:station:DISL:MHPA:1,2010-05-02T11:30:00Z,30.6671,-87.9365,8.5,10.68,159.4,-9999.0,'1111122,1111122,1111122' 
DISL,ioos:station:DISL:MHPA:1,2010-05-02T12:00:00Z,30.6671,-87.9365,8.5,10.19,158.6,-9999.0,'1111122,1111122,1111122' 
DISL,ioos:station:DISL:MHPA:1,2010-05-02T12:30:00Z,30.6671,-87.9365,8.5,11.14,159.9,-9999.0,'1111122,1111122,1111122' 
DISL,ioos:station:DISL:MHPA:1,2010-05-02T13:00:00Z,30.6671,-87.9365,8.5,9.13,160.3,-9999.0,'1111122,1111122,1111122' 
DISL,ioos:station:DISL:MHPA:1,2010-05-02T13:30:00Z,30.6671,-87.9365,8.5,9.3,164.3,-9999.0,'1111122,1111122,1111122' 
DISL,ioos:station:DISL:MHPA:1,2010-05-02T14:00:00Z,30.6671,-87.9365,8.5,10.31,164.5,-9999.0,'1111122,1111122,1111122' 
DISL,ioos:station:DISL:MHPA:1,2010-05-02T14:30:00Z,30.6671,-87.9365,8.5,10.62,165.1,-9999.0,'1111122,1111122,1111122' 
DISL,ioos:station:DISL:MHPA:1,2010-05-02T15:00:00Z,30.6671,-87.9365,8.5,11.94,167.0,-9999.0,'1111122,1111122,1111122' 
DISL,ioos:station:DISL:MHPA:1,2010-05-02T15:30:00Z,30.6671,-87.9365,8.5,12.0,167.0,-9999.0,'1111122,1111122,1111122' 
DISL,ioos:station:DISL:MHPA:1,2010-05-02T16:00:00Z,30.6671,-87.9365,8.5,11.54,166.1,-9999.0,'1111122,1111122,1111122' 
DISL,ioos:station:DISL:MHPA:1,2010-05-02T16:30:00Z,30.6671,-87.9365,8.5,10.79,164.8,-9999.0,'1111122,1111122,1111122' 
DISL,ioos:station:DISL:MHPA:1,2010-05-02T17:00:00Z,30.6671,-87.9365,8.5,11.76,167.7,-9999.0,'1111122,1111122,1111122' 
DISL,ioos:station:DISL:MHPA:1,2010-05-02T17:30:00Z,30.6671,-87.9365,8.5,12.07,174.0,-9999.0,'1111122,1111122,1111122' 
DISL,ioos:station:DISL:MHPA:1,2010-05-02T18:00:00Z,30.6671,-87.9365,8.5,11.67,169.6,-9999.0,'1111122,1111122,1111122' 
DISL,ioos:station:DISL:MHPA:1,2010-05-02T18:30:00Z,30.6671,-87.9365,8.5,11.2,176.6,-9999.0,'1111122,1111122,1111122' 
DISL,ioos:station:DISL:MHPA:1,2010-05-02T19:00:00Z,30.6671,-87.9365,8.5,11.72,176.7,-9999.0,'1111122,1111122,1111122' 
DISL,ioos:station:DISL:MHPA:1,2010-05-02T19:30:00Z,30.6671,-87.9365,8.5,10.14,174.2,-9999.0,'1111122,1111122,1111122' 
DISL,ioos:station:DISL:MHPA:1,2010-05-02T20:00:00Z,30.6671,-87.9365,8.5,10.73,169.6,-9999.0,'1111122,1111122,1111122' 
DISL,ioos:station:DISL:MHPA:1,2010-05-02T20:30:00Z,30.6671,-87.9365,8.5,10.48,164.5,-9999.0,'1111122,1111122,1111122' 
DISL,ioos:station:DISL:MHPA:1,2010-05-02T21:00:00Z,30.6671,-87.9365,8.5,10.87,164.6,-9999.0,'1111122,1111122,1111122' 
DISL,ioos:station:DISL:MHPA:1,2010-05-02T21:30:00Z,30.6671,-87.9365,8.5,10.28,167.2,-9999.0,'1111122,1111122,1111122' 
DISL,ioos:station:DISL:MHPA:1,2010-05-02T22:00:00Z,30.6671,-87.9365,8.5,10.72,164.1,-9999.0,'1111122,1111122,1111122' 
DISL,ioos:station:DISL:MHPA:1,2010-05-02T22:30:00Z,30.6671,-87.9365,8.5,11.73,160.0,-9999.0,'1111122,1111122,1111122' 
DISL,ioos:station:DISL:MHPA:1,2010-05-02T23:00:00Z,30.6671,-87.9365,8.5,11.19,163.1,-9999.0,'1111122,1111122,1111122' 
DISL,ioos:station:DISL:MHPA:1,2010-05-02T23:30:00Z,30.6671,-87.9365,8.5,11.07,163.1,-9999.0,'1111122,1111122,1111122' 
DISL,ioos:station:DISL:MHPA:1,2010-05-03T00:00:00Z,30.6671,-87.9365,8.5,10.91,163.7,-9999.0,'1111122,1111122,1111122' 
DISL,ioos:station:DISL:MHPA:1,2010-05-03T00:30:00Z,30.6671,-87.9365,8.5,11.02,164.6,-9999.0,'1111122,1111122,1111122' 
DISL,ioos:station:DISL:MHPA:1,2010-05-03T01:00:00Z,30.6671,-87.9365,8.5,10.7,165.0,-9999.0,'1111122,1111122,1111122' 
DISL,ioos:station:DISL:MHPA:1,2010-05-03T01:30:00Z,30.6671,-87.9365,8.5,10.75,165.4,-9999.0,'1111122,1111122,1111122' 
DISL,ioos:station:DISL:MHPA:1,2010-05-03T02:00:00Z,30.6671,-87.9365,8.5,11.03,163.4,-9999.0,'1111122,1111122,1111122' 
DISL,ioos:station:DISL:MHPA:1,2010-05-03T02:30:00Z,30.6671,-87.9365,8.5,10.9,168.7,-9999.0,'1111122,1111122,1111122' 
DISL,ioos:station:DISL:MHPA:1,2010-05-03T03:00:00Z,30.6671,-87.9365,8.5,10.61,165.3,-9999.0,'1111122,1111122,1111122' 
DISL,ioos:station:DISL:MHPA:1,2010-05-03T03:30:00Z,30.6671,-87.9365,8.5,10.08,163.9,-9999.0,'1111122,1111122,1111122' 
DISL,ioos:station:DISL:MHPA:1,2010-05-03T04:00:00Z,30.6671,-87.9365,8.5,10.43,170.0,-9999.0,'1111122,1111122,1111122' 
DISL,ioos:station:DISL:MHPA:1,2010-05-03T04:30:00Z,30.6671,-87.9365,8.5,10.03,169.4,-9999.0,'1111122,1111122,1111122' 
DISL,ioos:station:DISL:MHPA:1,2010-05-03T05:00:00Z,30.6671,-87.9365,8.5,11.41,172.2,-9999.0,'1111122,1111122,1111122' 
DISL,ioos:station:DISL:MHPA:1,2010-05-03T05:30:00Z,30.6671,-87.9365,8.5,11.38,172.8,-9999.0,'1111122,1111122,1111122' 
DISL,ioos:station:DISL:MHPA:1,2010-05-03T06:00:00Z,30.6671,-87.9365,8.5,10.26,175.4,-9999.0,'1111122,1111122,1111122' 
DISL,ioos:station:DISL:MHPA:1,2010-05-03T06:30:00Z,30.6671,-87.9365,8.5,10.33,176.7,-9999.0,'1111122,1111122,1111122' 
DISL,ioos:station:DISL:MHPA:1,2010-05-03T07:00:00Z,30.6671,-87.9365,8.5,10.49,172.1,-9999.0,'1111122,1111122,1111122' 
DISL,ioos:station:DISL:MHPA:1,2010-05-03T07:30:00Z,30.6671,-87.9365,8.5,9.31,179.6,-9999.0,'1111122,1111122,1111122' 
DISL,ioos:station:DISL:MHPA:1,2010-05-03T08:00:00Z,30.6671,-87.9365,8.5,9.4,175.4,-9999.0,'1111122,1111122,1111122' 
DISL,ioos:station:DISL:MHPA:1,2010-05-03T08:30:00Z,30.6671,-87.9365,8.5,9.21,177.7,-9999.0,'1111122,1111122,1111122' 
DISL,ioos:station:DISL:MHPA:1,2010-05-03T09:00:00Z,30.6671,-87.9365,8.5,8.35,180.2,-9999.0,'1111122,1111122,1111122' 
DISL,ioos:station:DISL:MHPA:1,2010-05-03T09:30:00Z,30.6671,-87.9365,8.5,7.82,181.0,-9999.0,'1111122,1111122,1111122' 
DISL,ioos:station:DISL:MHPA:1,2010-05-03T10:00:00Z,30.6671,-87.9365,8.5,7.86,180.1,-9999.0,'1111122,1111122,1111122' 
DISL,ioos:station:DISL:MHPA:1,2010-05-03T10:30:00Z,30.6671,-87.9365,8.5,7.74,179.6,-9999.0,'1111122,1111122,1111122' 
DISL,ioos:station:DISL:MHPA:1,2010-05-03T11:00:00Z,30.6671,-87.9365,8.5,8.18,176.5,-9999.0,'1111122,1111122,1111122' 
DISL,ioos:station:DISL:MHPA:1,2010-05-03T11:30:00Z,30.6671,-87.9365,8.5,7.95,178.8,-9999.0,'1111122,1111122,1111122' 
DISL,ioos:station:DISL:MHPA:1,2010-05-03T12:00:00Z,30.6671,-87.9365,8.5,6.75,193.4,-9999.0,'1111122,1111122,1111122' 
DISL,ioos:station:DISL:MHPA:1,2010-05-03T12:30:00Z,30.6671,-87.9365,8.5,6.32,192.3,-9999.0,'1111122,1111122,1111122' 
DISL,ioos:station:DISL:MHPA:1,2010-05-03T13:00:00Z,30.6671,-87.9365,8.5,6.79,207.4,-9999.0,'1111122,1111122,1111122' 
DISL,ioos:station:DISL:MHPA:1,2010-05-03T13:30:00Z,30.6671,-87.9365,8.5,4.64,288.7,-9999.0,'1111122,1111122,1111122' 
DISL,ioos:station:DISL:MHPA:1,2010-05-03T14:00:00Z,30.6671,-87.9365,8.5,3.64,312.8,-9999.0,'1111122,1111122,1111122' 
DISL,ioos:station:DISL:MHPA:1,2010-05-03T14:30:00Z,30.6671,-87.9365,8.5,2.04,17.13,-9999.0,'1111122,1111122,1111122' 
DISL,ioos:station:DISL:MHPA:1,2010-05-03T15:00:00Z,30.6671,-87.9365,8.5,1.72,61.36,-9999.0,'1111122,1111122,1111122' 
DISL,ioos:station:DISL:MHPA:1,2010-05-03T15:30:00Z,30.6671,-87.9365,8.5,1.68,59.12,-9999.0,'1111122,1111122,1111122' 
DISL,ioos:station:DISL:MHPA:1,2010-05-03T16:00:00Z,30.6671,-87.9365,8.5,1.18,99.5,-9999.0,'1111122,1111122,1111122' 
DISL,ioos:station:DISL:MHPA:1,2010-05-03T16:30:00Z,30.6671,-87.9365,8.5,0.64,88.0,-9999.0,'1111122,1111122,1111122' 
DISL,ioos:station:DISL:MHPA:1,2010-05-03T17:00:00Z,30.6671,-87.9365,8.5,1.4,38.33,-9999.0,'1111122,1111122,1111122' 
DISL,ioos:station:DISL:MHPA:1,2010-05-03T17:30:00Z,30.6671,-87.9365,8.5,1.24,86.9,-9999.0,'1111122,1111122,1111122' 
DISL,ioos:station:DISL:MHPA:1,2010-05-03T18:00:00Z,30.6671,-87.9365,8.5,1.47,33.54,-9999.0,'1111122,1111122,1111122' 
DISL,ioos:station:DISL:MHPA:1,2010-05-03T18:30:00Z,30.6671,-87.9365,8.5,1.63,129.8,-9999.0,'1111122,1111122,1111122' 
DISL,ioos:station:DISL:MHPA:1,2010-05-03T19:00:00Z,30.6671,-87.9365,8.5,2.0,125.5,-9999.0,'1111122,1111122,1111122' 
DISL,ioos:station:DISL:MHPA:1,2010-05-03T19:30:00Z,30.6671,-87.9365,8.5,1.9,122.8,-9999.0,'1111122,1111122,1111122' 
DISL,ioos:station:DISL:MHPA:1,2010-05-03T20:00:00Z,30.6671,-87.9365,8.5,1.86,140.7,-9999.0,'1111122,1111122,1111122' 
DISL,ioos:station:DISL:MHPA:1,2010-05-03T20:30:00Z,30.6671,-87.9365,8.5,2.04,125.8,-9999.0,'1111122,1111122,1111122' 
DISL,ioos:station:DISL:MHPA:1,2010-05-03T21:00:00Z,30.6671,-87.9365,8.5,1.72,100.7,-9999.0,'1111122,1111122,1111122' 
DISL,ioos:station:DISL:MHPA:1,2010-05-03T21:30:00Z,30.6671,-87.9365,8.5,3.06,99.6,-9999.0,'1111122,1111122,1111122' 
DISL,ioos:station:DISL:MHPA:1,2010-05-03T22:00:00Z,30.6671,-87.9365,8.5,2.43,118.1,-9999.0,'1111122,1111122,1111122' 
DISL,ioos:station:DISL:MHPA:1,2010-05-03T22:30:00Z,30.6671,-87.9365,8.5,2.89,121.5,-9999.0,'1111122,1111122,1111122' 
DISL,ioos:station:DISL:MHPA:1,2010-05-03T23:00:00Z,30.6671,-87.9365,8.5,3.72,118.8,-9999.0,'1111122,1111122,1111122' 
DISL,ioos:station:DISL:MHPA:1,2010-05-03T23:30:00Z,30.6671,-87.9365,8.5,2.51,128.7,-9999.0,'1111122,1111122,1111122' 
DISL,ioos:station:DISL:MHPA:1,2010-05-04T00:00:00Z,30.6671,-87.9365,8.5,4.32,125.3,-9999.0,'1111122,1111122,1111122' 
DISL,ioos:station:DISL:MHPA:1,2010-05-04T00:30:00Z,30.6671,-87.9365,8.5,3.55,113.8,-9999.0,'1111122,1111122,1111122' 
DISL,ioos:station:DISL:MHPA:1,2010-05-04T01:00:00Z,30.6671,-87.9365,8.5,2.08,113.9,-9999.0,'1111122,1111122,1111122' 
DISL,ioos:station:DISL:MHPA:1,2010-05-04T01:30:00Z,30.6671,-87.9365,8.5,2.29,112.7,-9999.0,'1111122,1111122,1111122' 
DISL,ioos:station:DISL:MHPA:1,2010-05-04T02:00:00Z,30.6671,-87.9365,8.5,2.93,129.8,-9999.0,'1111122,1111122,1111122' 
DISL,ioos:station:DISL:MHPA:1,2010-05-04T02:30:00Z,30.6671,-87.9365,8.5,1.3,90.3,-9999.0,'1111122,1111122,1111122' 
DISL,ioos:station:DISL:MHPA:1,2010-05-04T03:00:00Z,30.6671,-87.9365,8.5,1.79,110.0,-9999.0,'1111122,1111122,1111122' 
DISL,ioos:station:DISL:MHPA:1,2010-05-04T03:30:00Z,30.6671,-87.9365,8.5,1.29,67.8,-9999.0,'1111122,1111122,1111122' 
DISL,ioos:station:DISL:MHPA:1,2010-05-04T04:00:00Z,30.6671,-87.9365,8.5,1.37,11.33,-9999.0,'1111122,1111122,1111122' 
DISL,ioos:station:DISL:MHPA:1,2010-05-04T04:30:00Z,30.6671,-87.9365,8.5,0.33,110.4,-9999.0,'1111122,1111122,1111122' 
DISL,ioos:station:DISL:MHPA:1,2010-05-04T05:00:00Z,30.6671,-87.9365,8.5,0.72,31.27,-9999.0,'1111122,1111122,1111122' 
DISL,ioos:station:DISL:MHPA:1,2010-05-04T05:30:00Z,30.6671,-87.9365,8.5,0.58,25.68,-9999.0,'1111122,1111122,1111122' 
DISL,ioos:station:DISL:MHPA:1,2010-05-04T06:00:00Z,30.6671,-87.9365,8.5,0.81,335.7,-9999.0,'1111122,1111122,1111122' 
DISL,ioos:station:DISL:MHPA:1,2010-05-04T06:30:00Z,30.6671,-87.9365,8.5,1.11,18.21,-9999.0,'1111122,1111122,1111122' 
DISL,ioos:station:DISL:MHPA:1,2010-05-04T07:00:00Z,30.6671,-87.9365,8.5,1.34,45.11,-9999.0,'1111122,1111122,1111122' 
DISL,ioos:station:DISL:MHPA:1,2010-05-04T07:30:00Z,30.6671,-87.9365,8.5,1.24,21.91,-9999.0,'1111122,1111122,1111122' 
DISL,ioos:station:DISL:MHPA:1,2010-05-04T08:00:00Z,30.6671,-87.9365,8.5,0.65,169.2,-9999.0,'1111122,1111122,1111122' 
DISL,ioos:station:DISL:MHPA:1,2010-05-04T08:30:00Z,30.6671,-87.9365,8.5,1.31,60.97,-9999.0,'1111122,1111122,1111122' 
DISL,ioos:station:DISL:MHPA:1,2010-05-04T09:00:00Z,30.6671,-87.9365,8.5,1.57,14.71,-9999.0,'1111122,1111122,1111122' 
DISL,ioos:station:DISL:MHPA:1,2010-05-04T09:30:00Z,30.6671,-87.9365,8.5,2.2,355.4,-9999.0,'1111122,1111122,1111122' 
DISL,ioos:station:DISL:MHPA:1,2010-05-04T10:00:00Z,30.6671,-87.9365,8.5,1.66,44.31,-9999.0,'1111122,1111122,1111122' 
DISL,ioos:station:DISL:MHPA:1,2010-05-04T10:30:00Z,30.6671,-87.9365,8.5,1.78,14.65,-9999.0,'1111122,1111122,1111122' 
DISL,ioos:station:DISL:MHPA:1,2010-05-04T11:00:00Z,30.6671,-87.9365,8.5,1.53,34.08,-9999.0,'1111122,1111122,1111122' 
DISL,ioos:station:DISL:MHPA:1,2010-05-04T11:30:00Z,30.6671,-87.9365,8.5,2.69,358.8,-9999.0,'1111122,1111122,1111122' 
DISL,ioos:station:DISL:MHPA:1,2010-05-04T12:00:00Z,30.6671,-87.9365,8.5,2.82,327.0,-9999.0,'1111122,1111122,1111122' 
DISL,ioos:station:DISL:MHPA:1,2010-05-04T12:30:00Z,30.6671,-87.9365,8.5,3.36,19.65,-9999.0,'1111122,1111122,1111122' 
DISL,ioos:station:DISL:MHPA:1,2010-05-04T13:00:00Z,30.6671,-87.9365,8.5,3.55,0.496,-9999.0,'1111122,1111122,1111122' 
DISL,ioos:station:DISL:MHPA:1,2010-05-04T13:30:00Z,30.6671,-87.9365,8.5,3.0,354.5,-9999.0,'1111122,1111122,1111122' 
DISL,ioos:station:DISL:MHPA:1,2010-05-04T14:00:00Z,30.6671,-87.9365,8.5,3.08,25.31,-9999.0,'1111122,1111122,1111122' 
DISL,ioos:station:DISL:MHPA:1,2010-05-04T14:30:00Z,30.6671,-87.9365,8.5,2.3,28.51,-9999.0,'1111122,1111122,1111122' 
DISL,ioos:station:DISL:MHPA:1,2010-05-04T15:00:00Z,30.6671,-87.9365,8.5,2.69,358.2,-9999.0,'1111122,1111122,1111122' 
DISL,ioos:station:DISL:MHPA:1,2010-05-04T15:30:00Z,30.6671,-87.9365,8.5,2.19,17.2,-9999.0,'1111122,1111122,1111122' 
DISL,ioos:station:DISL:MHPA:1,2010-05-04T16:00:00Z,30.6671,-87.9365,8.5,3.13,351.3,-9999.0,'1111122,1111122,1111122' 
DISL,ioos:station:DISL:MHPA:1,2010-05-04T16:30:00Z,30.6671,-87.9365,8.5,2.89,358.0,-9999.0,'1111122,1111122,1111122' 
DISL,ioos:station:DISL:MHPA:1,2010-05-04T17:00:00Z,30.6671,-87.9365,8.5,2.83,39.7,-9999.0,'1111122,1111122,1111122' 
DISL,ioos:station:DISL:MHPA:1,2010-05-04T17:30:00Z,30.6671,-87.9365,8.5,2.86,32.15,-9999.0,'1111122,1111122,1111122' 
DISL,ioos:station:DISL:MHPA:1,2010-05-04T18:00:00Z,30.6671,-87.9365,8.5,3.22,47.81,-9999.0,'1111122,1111122,1111122' 
DISL,ioos:station:DISL:MHPA:1,2010-05-04T18:30:00Z,30.6671,-87.9365,8.5,2.63,26.87,-9999.0,'1111122,1111122,1111122' 
DISL,ioos:station:DISL:MHPA:1,2010-05-04T19:00:00Z,30.6671,-87.9365,8.5,2.3,40.65,-9999.0,'1111122,1111122,1111122' 
DISL,ioos:station:DISL:MHPA:1,2010-05-04T19:30:00Z,30.6671,-87.9365,8.5,1.99,347.4,-9999.0,'1111122,1111122,1111122' 
DISL,ioos:station:DISL:MHPA:1,2010-05-04T20:00:00Z,30.6671,-87.9365,8.5,1.7,12.5,-9999.0,'1111122,1111122,1111122' 
DISL,ioos:station:DISL:MHPA:1,2010-05-04T20:30:00Z,30.6671,-87.9365,8.5,2.26,353.7,-9999.0,'1111122,1111122,1111122' 
DISL,ioos:station:DISL:MHPA:1,2010-05-04T21:00:00Z,30.6671,-87.9365,8.5,2.8,338.3,-9999.0,'1111122,1111122,1111122' 
DISL,ioos:station:DISL:MHPA:1,2010-05-04T21:30:00Z,30.6671,-87.9365,8.5,2.88,350.7,-9999.0,'1111122,1111122,1111122' 
DISL,ioos:station:DISL:MHPA:1,2010-05-04T22:00:00Z,30.6671,-87.9365,8.5,3.16,346.9,-9999.0,'1111122,1111122,1111122' 
DISL,ioos:station:DISL:MHPA:1,2010-05-04T22:30:00Z,30.6671,-87.9365,8.5,3.01,345.3,-9999.0,'1111122,1111122,1111122' 
DISL,ioos:station:DISL:MHPA:1,2010-05-04T23:00:00Z,30.6671,-87.9365,8.5,2.29,9.35,-9999.0,'1111122,1111122,1111122' 
DISL,ioos:station:DISL:MHPA:1,2010-05-04T23:30:00Z,30.6671,-87.9365,8.5,2.11,352.0,-9999.0,'1111122,1111122,1111122' 
DISL,ioos:station:DISL:MHPA:1,2010-05-05T00:00:00Z,30.6671,-87.9365,8.5,2.13,355.2,-9999.0,'1111122,1111122,1111122' 
DISL,ioos:station:DISL:MHPA:1,2010-05-05T00:30:00Z,30.6671,-87.9365,8.5,1.91,3.805,-9999.0,'1111122,1111122,1111122' 
DISL,ioos:station:DISL:MHPA:1,2010-05-05T01:00:00Z,30.6671,-87.9365,8.5,0.95,38.21,-9999.0,'1111122,1111122,1111122' 
DISL,ioos:station:DISL:MHPA:1,2010-05-05T01:30:00Z,30.6671,-87.9365,8.5,1.04,31.5,-9999.0,'1111122,1111122,1111122' 
DISL,ioos:station:DISL:MHPA:1,2010-05-05T02:00:00Z,30.6671,-87.9365,8.5,2.82,143.2,-9999.0,'1111122,1111122,1111122' 
DISL,ioos:station:DISL:MHPA:1,2010-05-05T02:30:00Z,30.6671,-87.9365,8.5,3.33,166.9,-9999.0,'1111122,1111122,1111122' 
DISL,ioos:station:DISL:MHPA:1,2010-05-05T03:00:00Z,30.6671,-87.9365,8.5,1.83,130.0,-9999.0,'1111122,1111122,1111122' 
DISL,ioos:station:DISL:MHPA:1,2010-05-05T03:30:00Z,30.6671,-87.9365,8.5,1.56,148.8,-9999.0,'1111122,1111122,1111122' 
DISL,ioos:station:DISL:MHPA:1,2010-05-05T04:00:00Z,30.6671,-87.9365,8.5,1.69,131.5,-9999.0,'1111122,1111122,1111122' 
DISL,ioos:station:DISL:MHPA:1,2010-05-05T04:30:00Z,30.6671,-87.9365,8.5,2.16,146.7,-9999.0,'1111122,1111122,1111122' 